Location: Asheville, NC
(35.6000°N, 82.5500°W)
Time: 01:44:22
(UTC-05:00)

Vanguard 1 Rocket - Pass Details

Date: 12 February 2018
Orbit: 655 x 4222 km, 34.3° (Epoch: 20 February)

Event Time Altitude Azimuth Distance (km) Brightness Sun altitude
Rises 23:05:54 0° 216° (SW) 6,873 11.9 -58.6°
Reaches altitude 10° 23:10:10 10° 210° (SSW) 6,242 11.5 -59.3°
Enters shadow 23:11:48 14° 208° (SSW) 6,023 11.4 -59.5°
Exits shadow 23:53:12 13° 78° (ENE) 6,741 11.6 -65.0°
Drops below altitude 10° 23:54:43 10° 76° (ENE) 6,947 11.7 -65.1°
Sets 23:59:42 0° 72° (ENE) 7,666 12.1 -65.6°
